| time (UTC) | temp F | wind direction | speed MPH | gust MPH | rain 1hr in | rain 24hr in | rain mn in | humidity % | barometer mb |
| 20260906185831 | 76 | 10 | 4.0 | 10.0 | 0.00 | 0.04 | 0.00 | 56 | 1015.9 |
| 20260906185328 | 76 | 40 | 4.0 | 9.0 | 0.00 | 0.04 | 0.00 | 56 | 1016.0 |
| 20260906184839 | 76 | 38 | 6.0 | 13.0 | 0.00 | 0.04 | 0.00 | 58 | 1016.0 |
| 20260906184330 | 76 | 33 | 2.0 | 9.0 | 0.00 | 0.04 | 0.00 | 61 | 1016.1 |
| 20260906183822 | 76 | 306 | 2.0 | 11.0 | 0.00 | 0.04 | 0.00 | 56 | 1016.2 |
| 20260906183314 | 76 | 57 | 4.0 | 11.0 | 0.00 | 0.04 | 0.00 | 59 | 1016.2 |
| 20260906182826 | 76 | 296 | 5.0 | 9.0 | 0.00 | 0.04 | 0.00 | 59 | 1016.3 |
| 20260906182318 | 76 | 13 | 4.0 | 9.0 | 0.00 | 0.04 | 0.00 | 60 | 1016.2 |
| 20260906181850 | 75 | 34 | 3.0 | 12.0 | 0.00 | 0.04 | 0.00 | 62 | 1016.2 |
| 20260906181320 | 75 | 36 | 6.0 | 12.0 | 0.00 | 0.04 | 0.00 | 62 | 1016.3 |
| 20260906180816 | 74 | 30 | 4.0 | 8.0 | 0.00 | 0.04 | 0.00 | 63 | 1016.2 |
| 20260906180328 | 73 | 313 | 0.0 | 6.0 | 0.00 | 0.04 | 0.00 | 67 | 1016.4 |
| 20260906175819 | 74 | 29 | 3.0 | 11.0 | 0.00 | 0.04 | 0.00 | 65 | 1016.4 |
| 20260906175331 | 74 | 12 | 5.0 | 11.0 | 0.00 | 0.04 | 0.00 | 64 | 1016.4 |
| 20260906174823 | 75 | 301 | 5.0 | 9.0 | 0.00 | 0.04 | 0.00 | 65 | 1016.4 |
| 20260906174315 | 75 | 15 | 3.0 | 6.0 | 0.00 | 0.09 | 0.00 | 65 | 1016.4 |
| 20260906173848 | 74 | 51 | 2.0 | 8.0 | 0.00 | 0.09 | 0.00 | 65 | 1016.4 |
| 20260906173318 | 73 | 306 | 4.0 | 8.0 | 0.00 | 0.09 | 0.00 | 67 | 1016.4 |
| 20260906172830 | 73 | 298 | 5.0 | 8.0 | 0.00 | 0.09 | 0.00 | 68 | 1016.3 |
| 20260906172326 | 74 | 304 | 2.0 | 8.0 | 0.00 | 0.09 | 0.00 | 67 | 1016.4 |
| 20260906171818 | 74 | 12 | 6.0 | 8.0 | 0.00 | 0.09 | 0.00 | 67 | 1016.4 |
| 20260906171329 | 75 | 311 | 3.0 | 8.0 | 0.00 | 0.09 | 0.00 | 67 | 1016.5 |
| 20260906170840 | 75 | 63 | 3.0 | 7.0 | 0.00 | 0.09 | 0.00 | 61 | 1016.5 |
| 20260906170332 | 75 | 46 | 3.0 | 9.0 | 0.00 | 0.09 | 0.00 | 70 | 1016.4 |
| 20260906165841 | 75 | 44 | 4.0 | 9.0 | 0.00 | 0.09 | 0.00 | 67 | 1016.4 |
| 20260906165332 | 75 | 360 | 0.0 | 12.0 | 0.00 | 0.09 | 0.00 | 68 | 1016.5 |
| 20260906164824 | 74 | 9 | 4.0 | 12.0 | 0.00 | 0.09 | 0.00 | 69 | 1016.5 |
| 20260906164316 | 74 | 46 | 3.0 | 9.0 | 0.00 | 0.41 | 0.00 | 67 | 1016.7 |
| 20260906163828 | 74 | 9 | 4.0 | 9.0 | 0.00 | 0.41 | 0.00 | 69 | 1016.6 |
| 20260906163323 | 74 | 10 | 6.0 | 9.0 | 0.00 | 0.41 | 0.00 | 68 | 1016.7 |
| 20260906162815 | 74 | 67 | 5.0 | 10.0 | 0.00 | 0.41 | 0.00 | 68 | 1016.7 |
| 20260906162327 | 74 | 13 | 3.0 | 10.0 | 0.00 | 0.41 | 0.00 | 68 | 1016.7 |
| 20260906161818 | 73 | 48 | 2.0 | 9.0 | 0.00 | 0.41 | 0.00 | 71 | 1016.8 |
| 20260906161330 | 73 | 316 | 2.0 | 8.0 | 0.00 | 0.41 | 0.00 | 72 | 1016.7 |
| 20260906160822 | 73 | 9 | 4.0 | 8.0 | 0.00 | 0.41 | 0.00 | 73 | 1016.8 |
| 20260906160314 | 73 | 299 | 2.0 | 8.0 | 0.00 | 0.41 | 0.00 | 73 | 1016.8 |
| 20260906155824 | 72 | 315 | 2.0 | 8.0 | 0.00 | 0.41 | 0.00 | 72 | 1016.9 |
| 20260906155320 | 73 | 317 | 4.0 | 8.0 | 0.00 | 0.41 | 0.00 | 75 | 1016.9 |
| 20260906154832 | 72 | 34 | 0.0 | 6.0 | 0.00 | 0.41 | 0.00 | 72 | 1016.9 |
| 20260906154346 | 72 | 304 | 4.0 | 6.0 | 0.00 | 0.41 | 0.00 | 73 | 1016.9 |
| 20260906153816 | 72 | 315 | 1.0 | 6.0 | 0.00 | 0.41 | 0.00 | 75 | 1016.9 |
| 20260906153327 | 72 | 311 | 4.0 | 6.0 | 0.00 | 0.41 | 0.00 | 73 | 1016.9 |
| 20260906152820 | 72 | 122 | 0.0 | 8.0 | 0.00 | 0.41 | 0.00 | 77 | 1016.9 |
| 20260906152331 | 71 | 51 | 3.0 | 8.0 | 0.00 | 0.41 | 0.00 | 74 | 1016.9 |
| 20260906151823 | 71 | 315 | 3.0 | 6.0 | 0.00 | 0.41 | 0.00 | 73 | 1016.8 |
| 20260906151318 | 71 | 312 | 3.0 | 6.0 | 0.00 | 0.41 | 0.00 | 74 | 1016.8 |
| 20260906150829 | 71 | 24 | 4.0 | 8.0 | 0.00 | 0.41 | 0.00 | 76 | 1016.8 |
| 20260906150319 | 71 | 314 | 4.0 | 6.0 | 0.00 | 0.41 | 0.00 | 75 | 1016.8 |
| 20260906145830 | 71 | 9 | 4.0 | 6.0 | 0.00 | 0.41 | 0.00 | 76 | 1016.8 |
| 20260906145322 | 71 | 40 | 3.0 | 9.0 | 0.00 | 0.41 | 0.00 | 76 | 1016.8 |
| 20260906144833 | 71 | 9 | 4.0 | 9.0 | 0.00 | 0.41 | 0.00 | 78 | 1016.7 |
| 20260906144325 | 70 | 315 | 3.0 | 6.0 | 0.00 | 0.41 | 0.00 | 80 | 1016.7 |
| 20260906143818 | 70 | 9 | 2.0 | 5.0 | 0.00 | 0.41 | 0.00 | 80 | 1016.7 |
| 20260906143328 | 70 | 293 | 2.0 | 7.0 | 0.00 | 0.41 | 0.00 | 79 | 1016.6 |
| 20260906142844 | 69 | 51 | 3.0 | 7.0 | 0.00 | 0.41 | 0.00 | 79 | 1016.7 |
| 20260906142314 | 69 | 17 | 4.0 | 8.0 | 0.00 | 0.41 | 0.00 | 78 | 1016.7 |
| 20260906141825 | 69 | 311 | 5.0 | 8.0 | 0.00 | 0.41 | 0.00 | 79 | 1016.7 |
| 20260906141317 | 69 | 35 | 0.0 | 6.0 | 0.00 | 0.41 | 0.00 | 79 | 1016.7 |
| 20260906140850 | 69 | 315 | 4.0 | 6.0 | 0.00 | 0.41 | 0.00 | 81 | 1016.6 |
| 20260906140320 | 69 | 30 | 3.0 | 6.0 | 0.00 | 0.41 | 0.00 | 79 | 1016.6 |
| 20260906135830 | 68 | 46 | 2.0 | 5.0 | 0.00 | 0.41 | 0.00 | 81 | 1016.5 |
| 20260906135322 | 68 | 49 | 2.0 | 6.0 | 0.00 | 0.41 | 0.00 | 81 | 1016.5 |
| 20260906134814 | 68 | 9 | 2.0 | 5.0 | 0.00 | 0.41 | 0.00 | 81 | 1016.5 |
| 20260906134330 | 68 | 38 | 3.0 | 6.0 | 0.00 | 0.41 | 0.00 | 82 | 1016.4 |
| 20260906133821 | 67 | 311 | 3.0 | 6.0 | 0.00 | 0.41 | 0.00 | 81 | 1016.5 |
| 20260906133353 | 67 | 58 | 3.0 | 6.0 | 0.00 | 0.41 | 0.00 | 81 | 1016.5 |
| 20260906132824 | 67 | 57 | 1.0 | 4.0 | 0.00 | 0.41 | 0.00 | 82 | 1016.5 |
| 20260906132315 | 67 | 28 | 0.0 | 5.0 | 0.00 | 0.41 | 0.00 | 84 | 1016.5 |
| 20260906131827 | 66 | 17 | 2.0 | 5.0 | 0.00 | 0.41 | 0.00 | 84 | 1016.5 |
| 20260906131318 | 66 | 315 | 2.0 | 4.0 | 0.00 | 0.41 | 0.00 | 85 | 1016.6 |
| 20260906130829 | 66 | 13 | 3.0 | 4.0 | 0.00 | 0.41 | 0.00 | 86 | 1016.6 |
| 20260906130320 | 66 | 300 | 1.0 | 3.0 | 0.00 | 0.41 | 0.00 | 87 | 1016.6 |
| 20260906125833 | 66 | 288 | 0.0 | 3.0 | 0.00 | 0.41 | 0.00 | 87 | 1016.6 |
| 20260906125324 | 66 | 303 | 1.0 | 2.0 | 0.00 | 0.41 | 0.00 | 88 | 1016.5 |
| 20260906124814 | 65 | 306 | 0.0 | 2.0 | 0.00 | 0.41 | 0.00 | 88 | 1016.4 |
| 20260906124326 | 65 | 17 | 0.0 | 3.0 | 0.00 | 0.41 | 0.00 | 88 | 1016.4 |
| 20260906123818 | 64 | 34 | 0.0 | 3.0 | 0.00 | 0.41 | 0.00 | 87 | 1016.3 |
| 20260906123330 | 64 | 37 | 0.0 | 4.0 | 0.00 | 0.41 | 0.00 | 88 | 1016.3 |
| 20260906122822 | 64 | 41 | 1.0 | 4.0 | 0.00 | 0.41 | 0.00 | 88 | 1016.2 |
| 20260906122315 | 64 | 50 | 0.0 | 2.0 | 0.00 | 0.41 | 0.00 | 89 | 1016.2 |
| 20260906121847 | 64 | 29 | 0.0 | 2.0 | 0.00 | 0.41 | 0.00 | 89 | 1016.1 |
| 20260906121322 | 64 | 40 | 0.0 | 2.0 | 0.00 | 0.41 | 0.00 | 89 | 1016.1 |
| 20260906120814 | 64 | 40 | 0.0 | 2.0 | 0.00 | 0.41 | 0.00 | 89 | 1016.0 |
| 20260906120346 | 63 | 40 | 0.0 | 3.0 | 0.00 | 0.41 | 0.00 | 88 | 1015.9 |
| 20260906115814 | 63 | 38 | 0.0 | 3.0 | 0.00 | 0.41 | 0.00 | 89 | 1015.8 |
| 20260906115326 | 63 | 29 | 0.0 | 3.0 | 0.00 | 0.41 | 0.00 | 89 | 1015.7 |
| 20260906114838 | 63 | 26 | 0.0 | 1.0 | 0.00 | 0.41 | 0.00 | 89 | 1015.7 |
| 20260906114329 | 62 | 28 | 0.0 | 2.0 | 0.00 | 0.41 | 0.00 | 89 | 1015.7 |
| 20260906113820 | 62 | 22 | 0.0 | 1.0 | 0.00 | 0.41 | 0.00 | 90 | 1015.5 |
| 20260906113353 | 62 | 21 | 0.0 | 1.0 | 0.00 | 0.41 | 0.00 | 90 | 1015.4 |
| 20260906112823 | 62 | 11 | 0.0 | 1.0 | 0.00 | 0.41 | 0.00 | 90 | 1015.4 |
| 20260906112319 | 61 | 15 | 0.0 | 1.0 | 0.00 | 0.41 | 0.00 | 90 | 1015.3 |
| 20260906111831 | 61 | 15 | 0.0 | 0.0 | 0.00 | 0.41 | 0.00 | 90 | 1015.2 |
| 20260906111323 | 61 | 15 | 0.0 | 0.0 | 0.00 | 0.41 | 0.00 | 91 | 1015.2 |
| 20260906110813 | 61 | 15 | 0.0 | 1.0 | 0.00 | 0.41 | 0.00 | 92 | 1015.2 |
| 20260906110346 | 61 | 15 | 0.0 | 1.0 | 0.00 | 0.41 | 0.00 | 92 | 1015.1 |
| 20260906105814 | 61 | 15 | 0.0 | 0.0 | 0.00 | 0.41 | 0.00 | 92 | 1015.1 |
| 20260906105326 | 61 | 307 | 0.0 | 0.0 | 0.00 | 0.41 | 0.00 | 93 | 1015.0 |
| 20260906104819 | 61 | 307 | 0.0 | 0.0 | 0.00 | 0.41 | 0.00 | 92 | 1015.0 |
| 20260906104314 | 61 | 307 | 0.0 | 0.0 | 0.00 | 0.41 | 0.00 | 91 | 1014.9 |
| 20260906103826 | 61 | 307 | 0.0 | 0.0 | 0.00 | 0.41 | 0.00 | 91 | 1014.8 |
| 20260906103318 | 62 | 307 | 0.0 | 0.0 | 0.00 | 0.41 | 0.00 | 92 | 1014.9 |
| 20260906102830 | 62 | 307 | 0.0 | 0.0 | 0.00 | 0.41 | 0.00 | 92 | 1014.9 |
| 20260906102321 | 62 | 307 | 0.0 | 0.0 | 0.00 | 0.41 | 0.00 | 92 | 1014.8 |
| 20260906101853 | 62 | 307 | 0.0 | 0.0 | 0.00 | 0.41 | 0.00 | 92 | 1014.9 |
| 20260906101344 | 62 | 307 | 0.0 | 0.0 | 0.00 | 0.41 | 0.00 | 92 | 1014.8 |
| 20260906100814 | 62 | 307 | 0.0 | 0.0 | 0.00 | 0.41 | 0.00 | 90 | 1014.8 |
| 20260906100326 | 62 | 309 | 0.0 | 0.0 | 0.00 | 0.41 | 0.00 | 89 | 1014.7 |
| 20260906095817 | 62 | 309 | 0.0 | 0.0 | 0.00 | 0.41 | 0.00 | 89 | 1014.7 |
| 20260906095312 | 62 | 309 | 0.0 | 0.0 | 0.00 | 0.41 | 0.00 | 89 | 1014.6 |
| 20260906094845 | 62 | 309 | 0.0 | 0.0 | 0.00 | 0.41 | 0.00 | 89 | 1014.6 |
| 20260906094316 | 62 | 309 | 0.0 | 0.0 | 0.00 | 0.41 | 0.00 | 89 | 1014.6 |
| 20260906093828 | 62 | 309 | 0.0 | 0.0 | 0.00 | 0.41 | 0.00 | 89 | 1014.6 |
| 20260906093320 | 63 | 309 | 0.0 | 1.0 | 0.00 | 0.41 | 0.00 | 90 | 1014.5 |
| 20260906092854 | 63 | 309 | 0.0 | 4.0 | 0.00 | 0.41 | 0.00 | 89 | 1014.6 |
| 20260906092324 | 63 | 312 | 2.0 | 4.0 | 0.00 | 0.41 | 0.00 | 90 | 1014.6 |
| 20260906091815 | 63 | 300 | 0.0 | 0.0 | 0.00 | 0.41 | 0.00 | 90 | 1014.5 |
| 20260906091327 | 63 | 300 | 0.0 | 3.0 | 0.00 | 0.41 | 0.00 | 90 | 1014.4 |
| 20260906090822 | 63 | 304 | 1.0 | 3.0 | 0.00 | 0.41 | 0.00 | 89 | 1014.4 |
| 20260906090354 | 63 | 306 | 1.0 | 2.0 | 0.00 | 0.41 | 0.00 | 89 | 1014.3 |
| 20260906085823 | 63 | 11 | 0.0 | 1.0 | 0.00 | 0.41 | 0.00 | 89 | 1014.2 |
| 20260906085314 | 64 | 19 | 0.0 | 0.0 | 0.00 | 0.41 | 0.00 | 89 | 1014.2 |
| 20260906084826 | 64 | 19 | 0.0 | 0.0 | 0.00 | 0.41 | 0.00 | 89 | 1014.1 |
| 20260906084318 | 64 | 19 | 0.0 | 2.0 | 0.00 | 0.41 | 0.00 | 90 | 1014.2 |
| 20260906083830 | 64 | 19 | 0.0 | 2.0 | 0.00 | 0.41 | 0.00 | 90 | 1014.2 |
| 20260906083323 | 64 | 19 | 0.0 | 2.0 | 0.00 | 0.41 | 0.00 | 91 | 1014.2 |
| 20260906082814 | 64 | 360 | 0.0 | 0.0 | 0.00 | 0.41 | 0.00 | 91 | 1014.2 |
| 20260906082347 | 64 | 360 | 0.0 | 0.0 | 0.00 | 0.41 | 0.00 | 91 | 1014.2 |
| 20260906081821 | 64 | 360 | 0.0 | 0.0 | 0.00 | 0.41 | 0.00 | 90 | 1014.2 |
| 20260906081313 | 64 | 360 | 0.0 | 0.0 | 0.00 | 0.41 | 0.00 | 90 | 1014.0 |
| 20260906080825 | 64 | 360 | 0.0 | 0.0 | 0.00 | 0.41 | 0.00 | 90 | 1014.0 |
| 20260906080337 | 65 | 360 | 0.0 | 0.0 | 0.00 | 0.41 | 0.00 | 90 | 1013.9 |
| 20260906075826 | 65 | 360 | 0.0 | 0.0 | 0.00 | 0.41 | 0.00 | 89 | 1014.0 |
| 20260906075338 | 65 | 360 | 0.0 | 0.0 | 0.00 | 0.41 | 0.00 | 88 | 1014.1 |
| 20260906074830 | 65 | 360 | 0.0 | 1.0 | 0.00 | 0.41 | 0.00 | 88 | 1014.1 |
| 20260906074322 | 65 | 312 | 0.0 | 1.0 | 0.00 | 0.41 | 0.00 | 87 | 1014.1 |
| 20260906073814 | 66 | 47 | 0.0 | 0.0 | 0.00 | 0.41 | 0.00 | 87 | 1014.1 |
| 20260906073331 | 66 | 49 | 0.0 | 0.0 | 0.00 | 0.41 | 0.00 | 86 | 1013.9 |
| 20260906072842 | 66 | 49 | 0.0 | 0.0 | 0.00 | 0.41 | 0.00 | 85 | 1014.0 |
| 20260906072333 | 67 | 49 | 0.0 | 1.0 | 0.00 | 0.41 | 0.00 | 85 | 1013.9 |
| 20260906071825 | 67 | 49 | 0.0 | 1.0 | 0.00 | 0.41 | 0.00 | 84 | 1013.8 |
| 20260906071316 | 67 | 50 | 0.0 | 1.0 | 0.00 | 0.41 | 0.00 | 82 | 1013.8 |
| 20260906070828 | 67 | 50 | 0.0 | 1.0 | 0.00 | 0.41 | 0.00 | 83 | 1013.8 |
| 20260906070320 | 67 | 50 | 0.0 | 2.0 | 0.00 | 0.41 | 0.00 | 83 | 1013.8 |
| 20260906065830 | 67 | 50 | 0.0 | 2.0 | 0.00 | 0.41 | 0.00 | 84 | 1013.8 |
| 20260906065323 | 67 | 51 | 0.0 | 2.0 | 0.00 | 0.41 | 0.00 | 85 | 1013.9 |
| 20260906064818 | 67 | 51 | 0.0 | 0.0 | 0.00 | 0.41 | 0.00 | 85 | 1013.9 |
| 20260906064329 | 67 | 51 | 0.0 | 0.0 | 0.00 | 0.41 | 0.00 | 85 | 1013.8 |
| 20260906063821 | 67 | 51 | 0.0 | 1.0 | 0.00 | 0.41 | 0.00 | 85 | 1013.8 |
| 20260906063313 | 67 | 51 | 0.0 | 1.0 | 0.00 | 0.41 | 0.00 | 86 | 1013.8 |
| 20260906062825 | 67 | 51 | 0.0 | 0.0 | 0.00 | 0.41 | 0.00 | 86 | 1013.9 |
| 20260906062317 | 67 | 51 | 0.0 | 1.0 | 0.00 | 0.41 | 0.00 | 86 | 1014.0 |
| 20260906061828 | 67 | 51 | 0.0 | 1.0 | 0.00 | 0.41 | 0.00 | 87 | 1013.9 |
| 20260906061320 | 67 | 51 | 0.0 | 0.0 | 0.00 | 0.41 | 0.00 | 87 | 1014.0 |
| 20260906060835 | 67 | 51 | 0.0 | 0.0 | 0.00 | 0.41 | 0.00 | 87 | 1013.9 |
| 20260906060326 | 67 | 51 | 0.0 | 0.0 | 0.00 | 0.41 | 0.00 | 87 | 1013.8 |
| 20260906055816 | 67 | 51 | 0.0 | 1.0 | 0.00 | 0.41 | 0.00 | 87 | 1013.7 |
| 20260906055329 | 67 | 52 | 0.0 | 1.0 | 0.00 | 0.41 | 0.00 | 87 | 1013.8 |
| 20260906054821 | 67 | 49 | 0.0 | 1.0 | 0.00 | 0.41 | 0.00 | 87 | 1013.8 |
| 20260906054333 | 67 | 53 | 0.0 | 1.0 | 0.00 | 0.41 | 0.00 | 88 | 1013.7 |
| 20260906053825 | 67 | 53 | 0.0 | 1.0 | 0.00 | 0.41 | 0.00 | 88 | 1013.8 |
| 20260906053317 | 67 | 52 | 0.0 | 1.0 | 0.00 | 0.41 | 0.00 | 88 | 1013.8 |
| 20260906052829 | 67 | 52 | 0.0 | 1.0 | 0.00 | 0.41 | 0.00 | 89 | 1013.9 |
| 20260906052344 | 67 | 52 | 0.0 | 1.0 | 0.00 | 0.41 | 0.00 | 89 | 1013.8 |
| 20260906051815 | 67 | 52 | 0.0 | 1.0 | 0.00 | 0.41 | 0.00 | 89 | 1013.9 |
| 20260906051327 | 67 | 52 | 0.0 | 1.0 | 0.00 | 0.41 | 0.00 | 90 | 1013.9 |
| 20260906050819 | 67 | 52 | 0.0 | 1.0 | 0.00 | 0.41 | 0.00 | 90 | 1013.9 |
| 20260906050331 | 67 | 52 | 0.0 | 3.0 | 0.00 | 0.41 | 0.00 | 91 | 1013.8 |
| 20260906045821 | 68 | 52 | 0.0 | 3.0 | 0.00 | 0.41 | 0.00 | 91 | 1013.8 |
| 20260906045333 | 68 | 53 | 0.0 | 2.0 | 0.00 | 0.41 | 0.00 | 92 | 1013.8 |
| 20260906044825 | 68 | 65 | 0.0 | 3.0 | 0.00 | 0.41 | 0.00 | 92 | 1013.8 |
| 20260906044321 | 68 | 30 | 0.0 | 4.0 | 0.00 | 0.41 | 0.00 | 92 | 1013.8 |
| 20260906043833 | 68 | 56 | 0.0 | 4.0 | 0.00 | 0.41 | 0.00 | 92 | 1013.9 |
| 20260906043345 | 68 | 40 | 0.0 | 2.0 | 0.00 | 0.41 | 0.00 | 92 | 1013.9 |
| 20260906042817 | 68 | 302 | 0.0 | 0.0 | 0.00 | 0.41 | 0.00 | 92 | 1014.0 |
| 20260906042329 | 68 | 19 | 0.0 | 2.0 | 0.00 | 0.41 | 0.00 | 92 | 1014.0 |
| 20260906041841 | 68 | 33 | 0.0 | 3.0 | 0.00 | 0.41 | 0.00 | 92 | 1014.0 |
| 20260906041353 | 68 | 46 | 0.0 | 3.0 | 0.00 | 0.41 | 0.00 | 92 | 1014.1 |
| 20260906040823 | 68 | 47 | 0.0 | 2.0 | 0.00 | 0.41 | 0.00 | 92 | 1014.2 |
| 20260906040336 | 68 | 41 | 0.0 | 2.0 | 0.00 | 0.41 | 0.00 | 92 | 1014.2 |
| 20260906035825 | 68 | 44 | 0.0 | 2.0 | 0.00 | 0.41 | 0.00 | 92 | 1014.3 |
| 20260906035317 | 68 | 32 | 0.0 | 2.0 | 0.00 | 0.41 | 0.00 | 92 | 1014.3 |
| 20260906034832 | 68 | 32 | 0.0 | 2.0 | 0.00 | 0.41 | 0.00 | 92 | 1014.2 |
| 20260906034325 | 68 | 28 | 0.0 | 2.0 | 0.00 | 0.41 | 0.41 | 92 | 1014.3 |
| 20260906033817 | 68 | 9 | 0.0 | 1.0 | 0.00 | 0.41 | 0.41 | 92 | 1014.3 |
| 20260906033329 | 68 | 9 | 0.0 | 1.0 | 0.00 | 0.41 | 0.41 | 92 | 1014.3 |
| 20260906032821 | 69 | 190 | 0.0 | 0.0 | 0.00 | 0.41 | 0.41 | 92 | 1014.3 |
| 20260906032314 | 69 | 190 | 0.0 | 0.0 | 0.00 | 0.41 | 0.41 | 93 | 1014.3 |
| 20260906031825 | 69 | 190 | 0.0 | 0.0 | 0.00 | 0.41 | 0.41 | 93 | 1014.2 |
| 20260906031316 | 69 | 190 | 0.0 | 0.0 | 0.00 | 0.41 | 0.41 | 93 | 1014.2 |
| 20260906030832 | 69 | 190 | 0.0 | 1.0 | 0.00 | 0.41 | 0.41 | 93 | 1014.2 |
| 20260906030345 | 69 | 55 | 0.0 | 0.0 | 0.00 | 0.41 | 0.41 | 93 | 1014.2 |
| 20260906025854 | 69 | 55 | 0.0 | 0.0 | 0.00 | 0.41 | 0.41 | 93 | 1014.2 |
| 20260906025325 | 69 | 55 | 0.0 | 0.0 | 0.00 | 0.41 | 0.41 | 93 | 1014.2 |
| 20260906024818 | 69 | 55 | 0.0 | 1.0 | 0.00 | 0.41 | 0.41 | 92 | 1014.0 |
| 20260906024350 | 70 | 55 | 0.0 | 1.0 | 0.00 | 0.41 | 0.41 | 93 | 1014.1 |
| 20260906023821 | 70 | 55 | 0.0 | 0.0 | 0.00 | 0.41 | 0.41 | 93 | 1014.0 |
| 20260906023313 | 70 | 55 | 0.0 | 1.0 | 0.00 | 0.41 | 0.41 | 93 | 1013.9 |
| 20260906022825 | 70 | 55 | 0.0 | 1.0 | 0.00 | 0.41 | 0.41 | 93 | 1013.9 |
| 20260906022316 | 70 | 55 | 0.0 | 2.0 | 0.00 | 0.41 | 0.41 | 93 | 1013.9 |
| 20260906021832 | 70 | 55 | 0.0 | 2.0 | 0.00 | 0.41 | 0.41 | 93 | 1013.8 |
| 20260906021324 | 70 | 55 | 0.0 | 2.0 | 0.00 | 0.41 | 0.41 | 93 | 1013.7 |
| 20260906020815 | 70 | 55 | 0.0 | 2.0 | 0.00 | 0.41 | 0.41 | 93 | 1013.7 |
| 20260906020327 | 70 | 72 | 0.0 | 0.0 | 0.00 | 0.41 | 0.41 | 93 | 1013.6 |
| 20260906015818 | 70 | 72 | 0.0 | 0.0 | 0.00 | 0.41 | 0.41 | 93 | 1013.6 |
| 20260906015350 | 70 | 72 | 0.0 | 0.0 | 0.00 | 0.41 | 0.41 | 93 | 1013.7 |
| 20260906014821 | 70 | 72 | 0.0 | 0.0 | 0.00 | 0.41 | 0.41 | 93 | 1013.7 |
| 20260906014333 | 70 | 72 | 0.0 | 2.0 | 0.00 | 0.41 | 0.41 | 93 | 1013.6 |
| 20260906013824 | 70 | 72 | 0.0 | 2.0 | 0.00 | 0.41 | 0.41 | 93 | 1013.4 |
| 20260906013319 | 70 | 74 | 0.0 | 0.0 | 0.00 | 0.41 | 0.41 | 93 | 1013.4 |
| 20260906012831 | 70 | 74 | 0.0 | 0.0 | 0.00 | 0.41 | 0.41 | 93 | 1013.5 |
| 20260906012322 | 71 | 74 | 0.0 | 0.0 | 0.00 | 0.41 | 0.41 | 92 | 1013.5 |
| 20260906011814 | 71 | 74 | 0.0 | 0.0 | 0.00 | 0.41 | 0.41 | 93 | 1013.4 |
| 20260906011326 | 71 | 74 | 0.0 | 0.0 | 0.00 | 0.41 | 0.41 | 93 | 1013.2 |
| 20260906010838 | 70 | 103 | 0.0 | 0.0 | 0.00 | 0.41 | 0.41 | 93 | 1013.1 |
| 20260906010349 | 70 | 157 | 0.0 | 0.0 | 0.00 | 0.41 | 0.41 | 93 | 1013.1 |
| 20260906005816 | 70 | 157 | 0.0 | 0.0 | 0.00 | 0.41 | 0.41 | 93 | 1013.0 |
| 20260906005328 | 70 | 157 | 0.0 | 0.0 | 0.00 | 0.41 | 0.41 | 93 | 1012.9 |
| 20260906004824 | 70 | 157 | 0.0 | 0.0 | 0.00 | 0.41 | 0.41 | 93 | 1012.9 |
| 20260906004336 | 70 | 157 | 0.0 | 0.0 | 0.00 | 0.41 | 0.41 | 93 | 1012.8 |
| 20260906003827 | 70 | 157 | 0.0 | 0.0 | 0.00 | 0.41 | 0.41 | 93 | 1012.8 |
| 20260906003318 | 70 | 157 | 0.0 | 0.0 | 0.00 | 0.41 | 0.41 | 93 | 1012.7 |
| 20260906002830 | 70 | 157 | 0.0 | 0.0 | 0.00 | 0.41 | 0.41 | 93 | 1012.8 |
| 20260906002341 | 70 | 157 | 0.0 | 0.0 | 0.00 | 0.41 | 0.41 | 93 | 1012.9 |
| 20260906001832 | 70 | 157 | 0.0 | 0.0 | 0.00 | 0.41 | 0.41 | 92 | 1012.7 |
| 20260906001324 | 70 | 157 | 0.0 | 0.0 | 0.00 | 0.41 | 0.41 | 92 | 1012.7 |
| 20260906000836 | 70 | 157 | 0.0 | 0.0 | 0.00 | 0.41 | 0.41 | 91 | 1012.6 |
| 20260906000327 | 70 | 157 | 0.0 | 0.0 | 0.00 | 0.41 | 0.41 | 91 | 1012.5 |
| 20260905235821 | 71 | 157 | 0.0 | 0.0 | 0.00 | 0.41 | 0.41 | 91 | 1012.5 |
| 20260905235333 | 71 | 157 | 0.0 | 0.0 | 0.00 | 0.41 | 0.41 | 91 | 1012.5 |
| 20260905234824 | 71 | 157 | 0.0 | 0.0 | 0.00 | 0.41 | 0.41 | 91 | 1012.5 |
| 20260905234316 | 71 | 157 | 0.0 | 0.0 | 0.00 | 0.41 | 0.41 | 91 | 1012.6 |
| 20260905233828 | 71 | 157 | 0.0 | 0.0 | 0.00 | 0.41 | 0.41 | 91 | 1012.6 |
| 20260905233320 | 72 | 157 | 0.0 | 0.0 | 0.00 | 0.41 | 0.41 | 91 | 1012.6 |
| 20260905232832 | 72 | 157 | 0.0 | 0.0 | 0.00 | 0.41 | 0.41 | 91 | 1012.7 |
| 20260905232323 | 72 | 157 | 0.0 | 0.0 | 0.00 | 0.41 | 0.41 | 91 | 1012.6 |
| 20260905231819 | 72 | 157 | 0.0 | 0.0 | 0.00 | 0.41 | 0.41 | 91 | 1012.8 |
| 20260905231330 | 72 | 157 | 0.0 | 0.0 | 0.00 | 0.41 | 0.41 | 91 | 1012.7 |
| 20260905230841 | 72 | 157 | 0.0 | 0.0 | 0.00 | 0.41 | 0.41 | 91 | 1012.5 |
| 20260905230329 | 72 | 157 | 0.0 | 1.0 | 0.00 | 0.41 | 0.41 | 91 | 1012.4 |
| 20260905225819 | 72 | 157 | 0.0 | 2.0 | 0.00 | 0.41 | 0.41 | 91 | 1012.4 |
| 20260905225331 | 72 | 157 | 0.0 | 2.0 | 0.00 | 0.41 | 0.41 | 91 | 1012.3 |
| 20260905224823 | 72 | 160 | 0.0 | 0.0 | 0.00 | 0.41 | 0.41 | 90 | 1012.4 |
| 20260905224315 | 72 | 160 | 0.0 | 0.0 | 0.00 | 0.41 | 0.41 | 90 | 1012.4 |
| 20260905223827 | 72 | 159 | 0.0 | 1.0 | 0.00 | 0.41 | 0.41 | 90 | 1012.3 |
| 20260905223323 | 72 | 158 | 0.0 | 2.0 | 0.00 | 0.41 | 0.41 | 91 | 1012.4 |
| 20260905222814 | 72 | 158 | 0.0 | 2.0 | 0.00 | 0.41 | 0.41 | 91 | 1012.4 |
| 20260905222327 | 72 | 158 | 0.0 | 2.0 | 0.00 | 0.41 | 0.41 | 92 | 1012.3 |
| 20260905221818 | 72 | 157 | 0.0 | 2.0 | 0.00 | 0.41 | 0.41 | 92 | 1012.2 |
| 20260905221329 | 72 | 157 | 0.0 | 2.0 | 0.00 | 0.41 | 0.41 | 92 | 1012.2 |
| 20260905220821 | 72 | 109 | 0.0 | 2.0 | 0.00 | 0.41 | 0.41 | 92 | 1012.3 |
| 20260905220312 | 72 | 109 | 0.0 | 2.0 | 0.00 | 0.41 | 0.41 | 93 | 1012.2 |
| 20260905215843 | 72 | 157 | 0.0 | 0.0 | 0.00 | 0.41 | 0.41 | 93 | 1012.1 |
| 20260905215354 | 72 | 157 | 0.0 | 0.0 | 0.00 | 0.41 | 0.41 | 93 | 1012.1 |
| 20260905214824 | 71 | 157 | 0.0 | 3.0 | 0.00 | 0.41 | 0.41 | 93 | 1012.0 |
| 20260905214320 | 71 | 157 | 0.0 | 3.0 | 0.00 | 0.41 | 0.41 | 93 | 1012.0 |
| 20260905213832 | 71 | 155 | 1.0 | 5.0 | 0.00 | 0.41 | 0.41 | 93 | 1012.0 |
| 20260905213324 | 71 | 165 | 0.0 | 3.0 | 0.00 | 0.41 | 0.41 | 93 | 1011.8 |
| 20260905212836 | 71 | 167 | 1.0 | 3.0 | 0.00 | 0.41 | 0.41 | 93 | 1011.7 |
| 20260905212326 | 71 | 157 | 1.0 | 3.0 | 0.00 | 0.41 | 0.41 | 93 | 1011.8 |
| 20260905211818 | 71 | 146 | 0.0 | 2.0 | 0.00 | 0.41 | 0.41 | 93 | 1011.8 |
| 20260905211330 | 71 | 154 | 0.0 | 2.0 | 0.00 | 0.41 | 0.41 | 93 | 1011.7 |
| 20260905210822 | 71 | 49 | 0.0 | 3.0 | 0.04 | 0.41 | 0.41 | 93 | 1011.4 |
| 20260905210318 | 72 | 49 | 1.0 | 3.0 | 0.04 | 0.41 | 0.41 | 93 | 1011.5 |
| 20260905205829 | 72 | 53 | 1.0 | 2.0 | 0.04 | 0.41 | 0.41 | 92 | 1011.4 |
| 20260905205321 | 72 | 51 | 0.0 | 3.0 | 0.04 | 0.41 | 0.41 | 92 | 1011.6 |
| 20260905204833 | 72 | 43 | 0.0 | 3.0 | 0.04 | 0.41 | 0.41 | 92 | 1011.5 |
| 20260905204324 | 72 | 44 | 1.0 | 5.0 | 0.04 | 0.41 | 0.41 | 92 | 1011.6 |
| 20260905203816 | 72 | 53 | 2.0 | 5.0 | 0.04 | 0.41 | 0.41 | 92 | 1011.8 |
| 20260905203329 | 72 | 32 | 2.0 | 5.0 | 0.04 | 0.41 | 0.41 | 91 | 1011.8 |
| 20260905202820 | 72 | 37 | 3.0 | 5.0 | 0.04 | 0.41 | 0.41 | 91 | 1011.7 |
| 20260905202316 | 72 | 51 | 2.0 | 7.0 | 0.04 | 0.41 | 0.41 | 90 | 1011.8 |
| 20260905201848 | 73 | 44 | 3.0 | 10.0 | 0.04 | 0.41 | 0.41 | 88 | 1012.0 |
| 20260905201318 | 74 | 28 | 6.0 | 11.0 | 0.04 | 0.41 | 0.41 | 85 | 1012.0 |
| 20260905200831 | 76 | 311 | 8.0 | 12.0 | 0.00 | 0.37 | 0.37 | 82 | 1012.0 |
| 20260905200322 | 78 | 46 | 6.0 | 12.0 | 0.00 | 0.37 | 0.37 | 79 | 1011.9 |
| 20260905195813 | 78 | 315 | 0.0 | 3.0 | 0.00 | 0.37 | 0.37 | 78 | 1011.7 |
| 20260905195325 | 79 | 314 | 1.0 | 3.0 | 0.00 | 0.37 | 0.37 | 78 | 1011.7 |
| 20260905194817 | 78 | 25 | 0.0 | 2.0 | 0.00 | 0.37 | 0.37 | 77 | 1011.7 |
| 20260905194328 | 79 | 25 | 0.0 | 2.0 | 0.00 | 0.69 | 0.37 | 76 | 1011.7 |
| 20260905193824 | 79 | 88 | 0.0 | 2.0 | 0.00 | 0.69 | 0.37 | 79 | 1011.7 |
| 20260905193335 | 79 | 205 | 0.0 | 1.0 | 0.00 | 0.69 | 0.37 | 79 | 1011.7 |
| 20260905192826 | 79 | 197 | 0.0 | 2.0 | 0.00 | 0.69 | 0.37 | 81 | 1011.7 |
| 20260905192318 | 78 | 198 | 0.0 | 2.0 | 0.00 | 0.69 | 0.37 | 82 | 1012.0 |
| 20260905191830 | 78 | 296 | 1.0 | 2.0 | 0.00 | 0.69 | 0.37 | 82 | 1012.0 |
| 20260905191342 | 78 | 62 | 0.0 | 1.0 | 0.00 | 0.69 | 0.37 | 82 | 1012.0 |
| 20260905190812 | 78 | 129 | 0.0 | 2.0 | 0.00 | 0.69 | 0.37 | 81 | 1012.1 |
| 20260905190324 | 78 | 105 | 0.0 | 3.0 | 0.00 | 0.69 | 0.37 | 82 | 1012.2 |